[[{"header":{"parameterUnit":"m.s-1","parameterCategory":1,"la1":30.2991,"la2":30.254,"lo1":-89.0895,"lo2":-89.0444,"dy":0.0017,"dx":0.0017,"nx":28,"ny":28,"refTime":"2025-12-30T09:00:00:Z","depth":0,"parameterNumber":2,"parameterNumberName":"U-component_of_WINDS"},"data":[0,0,0,0,0,0,0,0,0,0,0,0,0,0,0,0,0,0,0,0,0,0,0,0,0,0,0,0,0,0,0,0,0,0,0,0,0,0,0,0,0,0,0,0,0,0,0,0,0,0,0,0,0,0,0,0,0,0,2.0088,2.0088,0,2.0085,2.0085,2.0085,2.0063,2.0063,2.0062,2.0062,2.0058,2.0059,2.0059,0,0,0,0,0,0,0,0,0,0,0,0,0,2.0076,2.0077,2.0088,2.0088,2.0088,2.0085,2.0085,2.0085,2.0063,2.0063,2.0062,2.0062,2.0058,2.0058,2.0059,0,0,0,0,0,0,0,0,0,0,0,0,0,2.0078,2.0077,2.0088,2.0077,2.0076,2.0085,2.0085,2.0085,2.0064,2.0063,2.0062,2.0061,2.0058,2.0058,2.0059,2.0078,0,0,2.0061,2.0061,0,0,0,0,0,0,0,0,2.0078,2.0078,2.0079,2.0078,2.0077,2.0074,2.0079,2.0082,2.0064,2.0068,2.0062,2.0061,2.0064,2.0064,2.0065,2.0078,2.0078,2.0061,2.0061,2.0061,2.0062,0,0,0,0,0,0,0,2.0078,2.0078,2.0087,2.0079,2.0077,2.0072,2.0072,2.008,2.007,2.0068,2.0066,2.0066,2.0063,2.0065,2.0065,2.0078,2.0061,2.0061,2.0062,2.0062,2.0107,2.0107,0,0,0,0,0,0,2.0079,2.0079,2.0087,2.0087,2.0075,2.0073,2.0072,2.0075,2.007,2.0069,2.0067,2.0065,2.0064,2.0064,2.0065,2.0086,2.0061,2.0062,2.0062,2.0106,2.0107,2.0108,0,0,0,0,0,0,2.0079,2.008,2.0087,2.0082,2.0083,2.0074,2.0078,2.0076,2.0077,2.007,2.0068,2.007,2.0063,2.0064,2.0075,2.0086,2.0062,2.0063,2.0105,2.0106,2.0107,2.013,0,0,0,0,0,0,2.0079,2.008,2.0087,2.0082,2.0083,2.0097,2.0078,2.0076,2.0078,2.0076,2.0072,2.007,2.0063,2.0074,2.0076,2.0086,2.0063,2.0104,2.0105,2.0107,2.0128,2.0132,2.0135,0,0,0,0,0,2.0079,2.0094,2.0088,2.0089,2.0091,2.0098,2.0098,2.0089,2.0079,2.0086,2.0081,2.0071,2.0085,2.0076,2.0077,2.0088,2.0103,2.0105,2.0107,2.0127,2.0131,2.0135,0,0,0,0,0,0,2.0099,2.0093,2.0086,2.01,2.01,2.0094,2.0102,2.0094,2.0096,2.0094,2.0083,2.0082,2.0095,2.0093,2.0083,2.0106,2.0092,2.0094,2.0107,2.0111,2.0115,2.0114,2.0064,0,0,0,0,0,2.0106,2.0111,2.0105,2.0118,2.0119,2.0111,2.0113,2.0106,2.0106,2.0105,2.0101,2.0101,2.0105,2.0108,2.0112,2.0129,2.0127,2.0137,2.014,2.0143,2.0145,2.0153,2.0158,2.0114,2.0114,2.0114,0,0,2.0118,2.0115,2.012,2.0122,2.0121,2.0128,2.0111,2.0118,2.0122,2.0106,2.0116,2.0114,2.0113,2.0127,2.0133,2.0125,2.0157,2.0146,2.0148,2.0148,2.0156,2.016,2.0164,2.0115,2.0115,2.0115,0,0,2.0144,2.0143,2.0154,2.0153,2.0152,2.0147,2.015,2.0146,2.0144,2.0154,2.0142,2.0148,2.0156,2.0155,2.0156,2.0185,2.0174,2.0186,2.0203,2.0212,2.0215,2.0218,2.0228,2.0231,2.0188,2.0188,2.0188,0,2.016,2.0169,2.016,2.0168,2.017,2.0157,2.0167,2.0167,2.0168,2.0169,2.0161,2.0171,2.017,2.0183,2.019,2.0192,2.0194,2.0186,2.0216,2.0218,2.0221,2.023,2.0233,2.019,2.0189,2.0189,2.0189,0,2.0188,2.0195,2.0203,2.0204,2.0207,2.0217,2.0209,2.0214,2.0207,2.0203,2.0214,2.0212,2.0215,2.0218,2.0212,2.0231,2.0227,2.0218,2.0203,2.0227,2.0235,2.0238,2.0191,2.0191,2.0191,2.019,0,0,2.0225,2.0222,2.0225,2.0226,2.0224,2.0229,2.0239,2.0242,2.0246,2.0247,2.0254,2.0262,2.0254,2.0255,2.0249,2.0256,2.0278,2.0246,2.0246,2.0251,2.0299,2.0305,2.0309,2.0273,2.0273,2.0274,2.0299,0,2.0249,2.0264,2.0258,2.0274,2.028,2.0268,2.0276,2.0277,2.0274,2.0278,2.0275,2.0281,2.027,2.027,2.0278,2.0274,2.0287,2.0272,2.0279,2.0279,2.0278,2.0313,2.0319,2.0343,2.0302,2.0303,2.0303,0,2.0279,2.0282,2.0298,2.0297,2.0299,2.0306,2.0309,2.0314,2.0315,2.0312,2.0314,2.0307,2.0316,2.0303,2.0315,2.0305,2.0308,2.0307,2.0307,2.0306,2.0291,2.0312,2.0351,2.0354,2.0308,2.0308,2.0307,0,2.0303,2.0311,2.0322,2.0323,2.0322,2.0327,2.0327,2.0327,2.033,2.0333,2.0334,2.0338,2.034,2.0344,2.0337,2.0328,2.0351,2.0337,2.0348,2.0349,2.0352,2.0352,2.039,2.0356,2.0356,2.0356,2.0356,0,2.033,2.034,2.0333,2.034,2.0351,2.0344,2.0356,2.0355,2.0355,2.0361,2.0352,2.0358,2.035,2.0356,2.0351,2.0362,2.0363,2.0361,2.036,2.0361,2.0361,2.0361,2.0359,2.0357,2.0357,2.0357,2.0356,0,2.0358,2.0353,2.0365,2.0363,2.0363,2.0372,2.037,2.0376,2.0374,2.0382,2.0383,2.0379,2.0385,2.038,2.0386,2.0383,2.0397,2.0394,2.0397,2.0395,2.0406,2.0405,2.0445,2.045,2.0414,2.0415,2.0415,0,2.0374,2.0382,2.0382,2.0385,2.0386,2.0392,2.0395,2.0389,2.0393,2.0395,2.0401,2.0406,2.041,2.042,2.0418,2.0422,2.0418,2.0432,2.0419,2.042,2.0417,2.0416,2.0417,2.0434,2.0435,2.0435,2.0435,0,2.0404,2.0402,2.0406,2.0411,2.0415,2.0418,2.0421,2.0424,2.0418,2.0423,2.0429,2.0432,2.0439,2.0444,2.0448,2.0448,2.0441,2.044,2.0443,2.0443,2.0444,2.0443,2.0403,2.0438,2.0438,2.0438,2.0438,2.0438,2.0426,2.0432,2.0433,2.0439,2.0441,2.0444,2.0449,2.0448,2.0453,2.0458,2.0455,2.0462,2.0463,2.0468,2.0469,2.0475,2.0469,2.0473,2.0474,2.0475,2.0476,2.0445,2.0476,2.0476,2.0476,2.0476,2.0475,0,2.0454,2.0455,2.046,2.0464,2.0469,2.0463,2.0466,2.047,2.0477,2.0479,2.0483,2.0491,2.0497,2.0495,2.05,2.0505,2.0502,2.0507,2.0506,2.0506,2.0481,2.0478,2.0509,2.0509,2.0509,2.0509,2.0509,2.0509,2.0469,2.048,2.0478,2.049,2.0491,2.0498,2.05,2.0503,2.0504,2.0514,2.0518,2.0518,2.0518,2.0524,2.0529,2.0528,2.053,2.0536,2.0534,2.0511,2.0507,2.0504,2.0501,2.0537,2.0537,2.0558,2.0558,2.0558]},{"header":{"parameterUnit":"m.s-1","parameterCategory":1,"la1":30.2991,"la2":30.254,"lo1":-89.0895,"lo2":-89.0444,"dy":0.0017,"dx":0.0017,"nx":28,"ny":28,"refTime":"2025-12-30T09:00:00:Z","depth":0,"parameterNumber":3,"parameterNumberName":"V-component_of_WINDS"},"data":[0,0,0,0,0,0,0,0,0,0,0,0,0,0,0,0,0,0,0,0,0,0,0,0,0,0,0,0,0,0,0,0,0,0,0,0,0,0,0,0,0,0,0,0,0,0,0,0,0,0,0,0,0,0,0,0,0,0,-5.6236,-5.6238,0,-5.6447,-5.6449,-5.6451,-5.6411,-5.6408,-5.6404,-5.64,-5.6612,-5.6621,-5.663,0,0,0,0,0,0,0,0,0,0,0,0,0,-5.5794,-5.5803,-5.6236,-5.6238,-5.6241,-5.6446,-5.6449,-5.6452,-5.6412,-5.6407,-5.6403,-5.6399,-5.6609,-5.6619,-5.663,0,0,0,0,0,0,0,0,0,0,0,0,0,-5.5993,-5.5805,-5.6235,-5.6246,-5.6249,-5.6446,-5.6449,-5.6453,-5.6413,-5.6407,-5.6402,-5.6396,-5.6605,-5.6618,-5.6632,-5.683,0,0,-5.6674,-5.668,0,0,0,0,0,0,0,0,-5.5982,-5.601,-5.6242,-5.6246,-5.6249,-5.6397,-5.6371,-5.6579,-5.6414,-5.6351,-5.64,-5.6394,-5.6545,-5.6563,-5.6615,-5.684,-5.6849,-5.6675,-5.6683,-5.6689,-5.6693,0,0,0,0,0,0,0,-5.5968,-5.6,-5.6319,-5.6245,-5.625,-5.6239,-5.6261,-5.641,-5.6477,-5.6356,-5.6353,-5.6379,-5.6545,-5.6602,-5.6619,-5.6852,-5.6675,-5.6687,-5.6695,-5.6701,-5.7249,-5.7255,0,0,0,0,0,0,-5.5952,-5.5989,-5.6312,-5.6325,-5.6099,-5.6251,-5.6276,-5.6355,-5.6475,-5.6488,-5.6384,-5.6376,-5.6581,-5.6603,-5.6627,-5.6866,-5.6689,-5.6702,-5.671,-5.7242,-5.725,-5.7257,0,0,0,0,0,0,-5.5942,-5.5981,-5.6304,-5.6157,-5.6197,-5.6265,-5.6354,-5.6362,-5.6418,-5.6496,-5.6507,-5.6429,-5.6577,-5.6607,-5.678,-5.6873,-5.6708,-5.6721,-5.7235,-5.7245,-5.7254,-5.7346,0,0,0,0,0,0,-5.593,-5.5978,-5.6055,-5.6159,-5.6205,-5.6455,-5.636,-5.6371,-5.6443,-5.6435,-5.6542,-5.6554,-5.6575,-5.6759,-5.6793,-5.6888,-5.6731,-5.7227,-5.7239,-5.7251,-5.7335,-5.7357,-5.7377,0,0,0,0,0,-5.5914,-5.6072,-5.6059,-5.6098,-5.6303,-5.6461,-5.6487,-5.651,-5.645,-5.6528,-5.6577,-5.655,-5.6857,-5.6777,-5.6815,-5.6916,-5.7221,-5.7236,-5.725,-5.7326,-5.7353,-5.7376,0,0,0,0,0,0,-5.5976,-5.6086,-5.6073,-5.6269,-5.6356,-5.6454,-5.6552,-5.6538,-5.6643,-5.6631,-5.6653,-5.6678,-5.6853,-5.6901,-5.6811,-5.7113,-5.703,-5.7053,-5.7075,-5.7102,-5.7122,-5.7107,-5.6743,0,0,0,0,0,-5.6012,-5.6133,-5.6221,-5.6386,-5.643,-5.6484,-5.6553,-5.6563,-5.6654,-5.669,-5.6752,-5.684,-5.6955,-5.7031,-5.7142,-5.7342,-5.7364,-5.7429,-5.745,-5.7467,-5.7486,-5.7594,-5.7624,-5.7304,-5.7304,-5.7303,0,0,-5.6089,-5.6164,-5.6238,-5.64,-5.6469,-5.6591,-5.6515,-5.6648,-5.6739,-5.6709,-5.6877,-5.6925,-5.7024,-5.7211,-5.7296,-5.7257,-5.7579,-5.7485,-5.7498,-5.7508,-5.7612,-5.7642,-5.7669,-5.7313,-5.7312,-5.731,0,0,-5.6291,-5.636,-5.6504,-5.6575,-5.668,-5.6715,-5.6749,-5.685,-5.6881,-5.7049,-5.703,-5.7137,-5.7337,-5.7408,-5.747,-5.7699,-5.7677,-5.7734,-5.7843,-5.7948,-5.7973,-5.7996,-5.8077,-5.8106,-5.7753,-5.7753,-5.7753,0,-5.6372,-5.6558,-5.658,-5.6716,-5.6787,-5.6767,-5.6913,-5.6979,-5.7115,-5.7164,-5.7118,-5.7368,-5.7433,-5.7636,-5.7692,-5.7743,-5.7782,-5.7722,-5.7968,-5.7991,-5.8012,-5.809,-5.812,-5.7759,-5.7758,-5.7758,-5.7757,0,-5.6652,-5.6781,-5.6885,-5.7018,-5.7101,-5.724,-5.7282,-5.7363,-5.7366,-5.7405,-5.7575,-5.7653,-5.7779,-5.7828,-5.7831,-5.8031,-5.8003,-5.7963,-5.788,-5.8049,-5.8122,-5.8152,-5.7768,-5.7766,-5.7764,-5.7762,0,0,-5.69,-5.7043,-5.7081,-5.714,-5.7255,-5.7354,-5.7492,-5.7617,-5.7685,-5.7779,-5.7895,-5.8064,-5.8027,-5.8098,-5.8109,-5.8201,-5.8376,-5.8149,-5.8152,-5.8188,-5.8601,-5.863,-5.8664,-5.8363,-5.8369,-5.8373,-5.8592,0,-5.7112,-5.7358,-5.7381,-5.7601,-5.7719,-5.7702,-5.7822,-5.7904,-5.7944,-5.8049,-5.8092,-5.8211,-5.8154,-5.8197,-5.8287,-5.8336,-5.8459,-5.832,-5.8469,-5.8474,-5.8445,-5.8703,-5.8735,-5.8938,-5.8621,-5.8626,-5.8629,0,-5.7393,-5.7496,-5.7728,-5.7826,-5.7876,-5.7984,-5.81,-5.8201,-5.8293,-5.8315,-5.8395,-5.8393,-5.8533,-5.8445,-5.8638,-5.8543,-5.8605,-5.8638,-5.8647,-5.8661,-5.8562,-5.8724,-5.9003,-5.9033,-5.8675,-5.8671,-5.8668,0,-5.755,-5.7747,-5.7911,-5.7962,-5.808,-5.8156,-5.8208,-5.8295,-5.8369,-5.8469,-5.8517,-5.8632,-5.8695,-5.8783,-5.8812,-5.8745,-5.9004,-5.8918,-5.9025,-5.9024,-5.908,-5.9076,-5.9373,-5.9121,-5.912,-5.912,-5.9119,0,-5.7785,-5.7927,-5.7983,-5.8084,-5.8242,-5.8267,-5.8422,-5.847,-5.8548,-5.8656,-5.8648,-5.8749,-5.8782,-5.8888,-5.8912,-5.9068,-5.9096,-5.9117,-5.9121,-5.9118,-5.9115,-5.9159,-5.9145,-5.9128,-5.9126,-5.9124,-5.9123,0,-5.7986,-5.803,-5.8207,-5.8304,-5.8332,-5.8444,-5.8527,-5.8623,-5.8661,-5.8798,-5.8832,-5.8891,-5.9016,-5.9054,-5.9204,-5.922,-5.9402,-5.9394,-5.9372,-5.9372,-5.9477,-5.9466,-5.9812,-5.9858,-5.9575,-5.9578,-5.958,0,-5.8134,-5.8243,-5.8352,-5.8425,-5.8481,-5.8598,-5.8673,-5.8701,-5.8779,-5.8892,-5.8975,-5.9099,-5.92,-5.9401,-5.9456,-5.957,-5.9565,-5.9678,-5.9582,-5.9575,-5.9566,-5.9559,-5.957,-5.9696,-5.9699,-5.9701,-5.9703,0,-5.839,-5.8406,-5.8515,-5.8632,-5.8722,-5.8815,-5.8905,-5.8964,-5.9005,-5.9093,-5.9222,-5.93,-5.9454,-5.9577,-5.9694,-5.9745,-5.9731,-5.9733,-5.9764,-5.9761,-5.9744,-5.9754,-5.9421,-5.9725,-5.9723,-5.9721,-5.972,-5.9719,-5.8569,-5.8665,-5.8757,-5.8879,-5.8949,-5.9033,-5.9128,-5.9178,-5.9286,-5.9415,-5.9424,-5.9564,-5.9652,-5.9807,-5.9865,-5.9973,-5.994,-5.9984,-5.9996,-6.0006,-6.0015,-5.9727,-5.9994,-5.9994,-5.9993,-5.9993,-5.9992,0,-5.8825,-5.8883,-5.8995,-5.9121,-5.9216,-5.9195,-5.9293,-5.9374,-5.9497,-5.9581,-5.9681,-5.9828,-5.9947,-6.0012,-6.013,-6.0204,-6.0201,-6.0234,-6.0229,-6.0241,-6.0038,-5.9999,-6.0235,-6.0235,-6.0235,-6.0235,-6.0235,-6.0235,-5.8969,-5.913,-5.9157,-5.9353,-5.9409,-5.9547,-5.9604,-5.9681,-5.9748,-5.9914,-6.0013,-6.0055,-6.0131,-6.0255,-6.0362,-6.0378,-6.0422,-6.0459,-6.0471,-6.028,-6.0255,-6.0232,-6.0196,-6.0469,-6.0469,-6.0665,-6.0667,-6.0669]}]]